Torna al catalogo

SATELIOT_3

AttivoComunicazioniSSO
NORAD 60552·PAYLOAD·🇪🇸 Spain

Lanciato Aug 16, 2024 da Vandenberg Space Force Base

Loading…

Prossimi Passaggi (prossime 24 ore)

TLE

AggiornatoSource: Space-Track

Epoca: Sep 14, 2026, 11:57 UTC

1 60552U 24149CN  26257.49799427  .00002236  00000-0  19249-3 0  9992
2 60552  97.6765 332.7696 0006593 129.8799 230.3004 14.98354623113455

Traccia SATELIOT_3 in tempo reale con AllMySat

Download on the App Store